(459077) = 2012 BB52

Discovered at Mount Lemmon on 2011-12-27 by Mt. Lemmon Survey.

Orbit

Orbit type: Main Belt

Note: WebGL enabled browser required.

epoch2023-09-13.0
epoch JD2460200.5
perihelion date2021-01-06.06544
perihelion JD2459220.56544
argument of perihelion (°)246.06253
ascending node (°)306.70403
inclination (°)10.68566
eccentricity0.1414602
perihelion distance (AU)2.2470264
Tisserand w.r.t. Jupiter3.4
ΔV w.r.t. Earth (km/sec)10.0
semimajor axis (AU)2.6172652
mean anomaly (°)228.10212
mean daily motion (°/day)0.23277280
aphelion distance (AU)2.988
period (years)4.23
P-vector [x]-0.96257161
P-vector [y]-0.12664112
P-vector [z]-0.23962038
Q-vector [x]0.22662016
Q-vector [y]-0.86101657
Q-vector [z]-0.45529525
absolute magnitude17.18
phase slope0.15
uncertainty0
referenceMPEC 2023-X279
observations used132
oppositions10
arc length (days)5754
first opposition used2008
last opposition used2023
residual rms (arc-secs)0.72
perturbers coarse indicatorM-v
perturbers precise indicator003Ek
first observation date used2008-03-12.0
last observation date used2023-12-13.0
computer nameMPCLINUX
JD of orbit computation2457435.126651
perihelion JD uncertainty (days)3.5654E-04
argument of perihelion uncertainty (°)8.2800E-05
ascending node uncertainty (°)1.3503E-05
inclination uncertainty (°)7.9103E-06
eccentricity uncertainty 7.6382E-08
perihelion distance uncertainty (AU)2.4681E-07
Minimum Orbit Intersection Distances (in AU)
for orbit epoch: 2460200.5, reference: E2023-XD2
Mercury1.83598
Venus1.55214
Earth1.27172
Mars0.67654
Jupiter2.0889
Saturn6.35166
Uranus16.1473
Neptune26.9288

Observations

132 total observations over interval: 2008 03 12.32647 – 2023 12 13.238213
These data are available for download (format description).

